[[{"header":{"parameterUnit":"m.s-1","parameterCategory":1,"la1":30.2991,"la2":30.254,"lo1":-89.0895,"lo2":-89.0444,"dy":0.0017,"dx":0.0017,"nx":28,"ny":28,"refTime":"2025-05-22T03:00:00:Z","depth":0,"parameterNumber":2,"parameterNumberName":"U-component_of_WINDS"},"data":[0,0,0,0,0,0,0,0,0,0,0,0,0,0,0,0,0,0,0,0,0,0,0,0,0,0,0,0,0,0,0,0,0,0,0,0,0,0,0,0,0,0,0,0,0,0,0,0,0,0,0,0,0,0,0,0,0,0,-2.0071,-2.0072,0,-2.009,-2.009,-2.009,-2.013,-2.0131,-2.0131,-2.0132,-2.015,-2.015,-2.015,0,0,0,0,0,0,0,0,0,0,0,0,0,-2.0069,-2.0069,-2.0071,-2.0072,-2.0072,-2.009,-2.009,-2.009,-2.013,-2.0131,-2.0132,-2.0133,-2.015,-2.015,-2.015,0,0,0,0,0,0,0,0,0,0,0,0,0,-2.0077,-2.0069,-2.0071,-2.0094,-2.0096,-2.009,-2.009,-2.0091,-2.013,-2.0131,-2.0132,-2.0133,-2.0151,-2.015,-2.015,-2.0123,0,0,-2.0149,-2.0148,0,0,0,0,0,0,0,0,-2.0076,-2.0077,-2.009,-2.0092,-2.0095,-2.0109,-2.0096,-2.0102,-2.0129,-2.0117,-2.0132,-2.0134,-2.0136,-2.0136,-2.0137,-2.0124,-2.0125,-2.0149,-2.0148,-2.0148,-2.0148,0,0,0,0,0,0,0,-2.0076,-2.0076,-2.0079,-2.009,-2.0093,-2.0102,-2.0105,-2.0097,-2.0119,-2.0118,-2.0121,-2.0123,-2.0137,-2.0138,-2.0138,-2.0125,-2.0149,-2.0148,-2.0148,-2.0148,-2.009,-2.0089,0,0,0,0,0,0,-2.0072,-2.0076,-2.0078,-2.0079,-2.0088,-2.0101,-2.0104,-2.0103,-2.0119,-2.0123,-2.0121,-2.0124,-2.0138,-2.0138,-2.0139,-2.0107,-2.0148,-2.0148,-2.0148,-2.0091,-2.009,-2.0088,0,0,0,0,0,0,-2.0072,-2.0072,-2.0077,-2.0078,-2.008,-2.01,-2.0099,-2.0103,-2.0103,-2.0122,-2.0126,-2.0118,-2.0139,-2.0139,-2.0127,-2.0108,-2.0148,-2.0147,-2.0093,-2.0091,-2.0089,-2.0045,0,0,0,0,0,0,-2.0072,-2.0072,-2.0062,-2.0078,-2.008,-2.0065,-2.0098,-2.0102,-2.0103,-2.0107,-2.012,-2.0123,-2.014,-2.0127,-2.0126,-2.0109,-2.0147,-2.0095,-2.0092,-2.009,-2.0048,-2.0042,-2.0036,0,0,0,0,0,-2.0072,-2.0049,-2.0061,-2.0061,-2.0068,-2.0064,-2.0065,-2.0084,-2.0101,-2.0091,-2.0103,-2.0123,-2.0111,-2.0125,-2.0125,-2.0107,-2.0096,-2.0093,-2.009,-2.0051,-2.0043,-2.0036,0,0,0,0,0,0,-2.003,-2.0051,-2.0065,-2.0047,-2.0054,-2.0071,-2.0059,-2.0076,-2.0077,-2.008,-2.0105,-2.0107,-2.0091,-2.0098,-2.0114,-2.0082,-2.0107,-2.0103,-2.0077,-2.007,-2.0064,-2.0061,-2.0147,0,0,0,0,0,-2.0019,-2.0015,-2.0033,-2.0016,-2.0018,-2.0038,-2.0037,-2.0051,-2.0059,-2.0061,-2.0072,-2.0078,-2.0076,-2.0074,-2.0073,-2.005,-2.0053,-2.0038,-2.0032,-2.0027,-2.0023,-2.001,-2.0003,-2.0079,-2.0079,-2.0079,0,0,-1.9996,-2.0007,-2.0003,-2.0008,-2.0014,-2.0008,-2.004,-2.0032,-2.0027,-2.006,-2.0048,-2.0057,-2.0065,-2.0047,-2.0039,-2.0052,-2.0003,-2.0023,-2.0019,-2.0018,-2.0006,-1.9999,-1.9992,-2.0077,-2.0077,-2.0077,0,0,-1.995,-1.9959,-1.9944,-1.995,-1.9959,-1.9973,-1.9969,-1.9984,-1.999,-1.9979,-2.0003,-1.9998,-1.9994,-1.9998,-2.0,-1.9956,-1.9973,-1.9955,-1.9923,-1.991,-1.9904,-1.9899,-1.9881,-1.9874,-1.9952,-1.9952,-1.9952,0,-1.992,-1.9912,-1.9934,-1.9925,-1.9926,-1.9956,-1.994,-1.9945,-1.9953,-1.9953,-1.9968,-1.9963,-1.9971,-1.9953,-1.9942,-1.9943,-1.9939,-1.9952,-1.9903,-1.9898,-1.9894,-1.9877,-1.987,-1.9949,-1.9949,-1.995,-1.995,0,-1.9873,-1.9867,-1.9854,-1.9861,-1.9861,-1.9849,-1.9869,-1.9866,-1.9881,-1.9892,-1.988,-1.9891,-1.9891,-1.9889,-1.9904,-1.9873,-1.988,-1.9899,-1.9924,-1.9883,-1.9868,-1.9862,-1.9946,-1.9947,-1.9947,-1.9948,0,0,-1.98,-1.982,-1.9814,-1.9817,-1.983,-1.9826,-1.9815,-1.9816,-1.9812,-1.9817,-1.9807,-1.9803,-1.982,-1.9822,-1.9838,-1.9827,-1.9788,-1.9846,-1.9847,-1.9833,-1.9752,-1.9736,-1.9728,-1.9801,-1.98,-1.9799,-1.9751,0,-1.9755,-1.9736,-1.9757,-1.9734,-1.9728,-1.9756,-1.9747,-1.9753,-1.9764,-1.976,-1.9772,-1.9768,-1.9792,-1.9793,-1.9783,-1.9795,-1.9772,-1.9799,-1.979,-1.979,-1.9784,-1.9721,-1.9704,-1.9658,-1.9745,-1.9744,-1.9744,0,-1.9699,-1.9701,-1.9678,-1.9691,-1.9689,-1.968,-1.9682,-1.9679,-1.9686,-1.9695,-1.9697,-1.9716,-1.9705,-1.9731,-1.9716,-1.9734,-1.9732,-1.9737,-1.9736,-1.9734,-1.9762,-1.9714,-1.9644,-1.9636,-1.9735,-1.9735,-1.9736,0,-1.9645,-1.9642,-1.9628,-1.963,-1.9645,-1.9638,-1.9644,-1.9653,-1.9652,-1.9654,-1.9653,-1.9654,-1.9654,-1.9654,-1.9672,-1.969,-1.9654,-1.9683,-1.9659,-1.9658,-1.9648,-1.9648,-1.9573,-1.9651,-1.9651,-1.9651,-1.9652,0,-1.9591,-1.9575,-1.9603,-1.9593,-1.9576,-1.96,-1.9582,-1.9591,-1.9599,-1.9591,-1.9617,-1.9609,-1.9635,-1.963,-1.9644,-1.9628,-1.9629,-1.9634,-1.9637,-1.963,-1.9629,-1.9627,-1.9629,-1.965,-1.965,-1.965,-1.9651,0,-1.9526,-1.9545,-1.953,-1.9547,-1.955,-1.9536,-1.955,-1.9541,-1.9555,-1.9544,-1.9543,-1.9563,-1.9558,-1.9577,-1.9576,-1.9585,-1.956,-1.9571,-1.9557,-1.9559,-1.9534,-1.9535,-1.9453,-1.9443,-1.953,-1.9529,-1.9528,0,-1.9489,-1.9477,-1.9492,-1.9489,-1.9494,-1.9488,-1.9487,-1.9511,-1.9508,-1.9516,-1.9506,-1.9503,-1.9502,-1.9493,-1.9507,-1.9505,-1.9514,-1.9486,-1.9514,-1.9506,-1.951,-1.9509,-1.9507,-1.9479,-1.9478,-1.9477,-1.9476,0,-1.9421,-1.943,-1.9428,-1.9428,-1.9426,-1.9428,-1.9431,-1.9427,-1.9452,-1.9448,-1.9443,-1.9442,-1.944,-1.9436,-1.9438,-1.9444,-1.9463,-1.9468,-1.9461,-1.9452,-1.9443,-1.9445,-1.9538,-1.9469,-1.9469,-1.947,-1.947,-1.9471,-1.9367,-1.9357,-1.9365,-1.9361,-1.9366,-1.9369,-1.9361,-1.9373,-1.9369,-1.9369,-1.9384,-1.9375,-1.9383,-1.9387,-1.9391,-1.9385,-1.9398,-1.939,-1.9387,-1.9384,-1.9378,-1.9447,-1.9385,-1.9386,-1.9386,-1.9386,-1.9386,0,-1.9297,-1.9304,-1.93,-1.9304,-1.93,-1.932,-1.9325,-1.932,-1.9313,-1.9318,-1.9317,-1.931,-1.9307,-1.9321,-1.9319,-1.9311,-1.9319,-1.9309,-1.9308,-1.9309,-1.9368,-1.9372,-1.9302,-1.9302,-1.9302,-1.9302,-1.9302,-1.9302,-1.926,-1.9243,-1.9254,-1.924,-1.9247,-1.9239,-1.924,-1.9242,-1.9246,-1.9238,-1.9235,-1.9244,-1.9253,-1.9252,-1.9249,-1.9253,-1.925,-1.9236,-1.9243,-1.9297,-1.9305,-1.9313,-1.9316,-1.9236,-1.9236,-1.9184,-1.9183,-1.9183]},{"header":{"parameterUnit":"m.s-1","parameterCategory":1,"la1":30.2991,"la2":30.254,"lo1":-89.0895,"lo2":-89.0444,"dy":0.0017,"dx":0.0017,"nx":28,"ny":28,"refTime":"2025-05-22T03:00:00:Z","depth":0,"parameterNumber":3,"parameterNumberName":"V-component_of_WINDS"},"data":[0,0,0,0,0,0,0,0,0,0,0,0,0,0,0,0,0,0,0,0,0,0,0,0,0,0,0,0,0,0,0,0,0,0,0,0,0,0,0,0,0,0,0,0,0,0,0,0,0,0,0,0,0,0,0,0,0,0,3.0962,3.0963,0,3.1059,3.106,3.1061,3.1064,3.1063,3.1062,3.1061,3.1154,3.1158,3.1161,0,0,0,0,0,0,0,0,0,0,0,0,0,3.0775,3.0779,3.0962,3.0963,3.0964,3.1058,3.106,3.1061,3.1064,3.1063,3.1062,3.106,3.1153,3.1157,3.1162,0,0,0,0,0,0,0,0,0,0,0,0,0,3.0862,3.078,3.0962,3.0978,3.098,3.1058,3.106,3.1061,3.1065,3.1063,3.1061,3.106,3.1152,3.1157,3.1162,3.123,0,0,3.1179,3.1181,0,0,0,0,0,0,0,0,3.0857,3.0869,3.0974,3.0977,3.0979,3.1048,3.1028,3.1118,3.1065,3.1032,3.1061,3.1059,3.112,3.1128,3.1149,3.1234,3.1238,3.1179,3.1182,3.1185,3.1186,0,0,0,0,0,0,0,3.0851,3.0865,3.1,3.0975,3.0979,3.0978,3.0989,3.1045,3.1084,3.1035,3.1036,3.1047,3.1121,3.1144,3.1152,3.1239,3.1179,3.1184,3.1187,3.1189,3.1385,3.1386,0,0,0,0,0,0,3.0843,3.086,3.0997,3.1003,3.0913,3.0983,3.0995,3.1027,3.1084,3.1091,3.1049,3.1047,3.1136,3.1145,3.1155,3.1239,3.1185,3.119,3.1193,3.1383,3.1385,3.1387,0,0,0,0,0,0,3.0839,3.0855,3.0993,3.0932,3.0949,3.0988,3.1025,3.103,3.1054,3.1094,3.1101,3.1066,3.1135,3.1147,3.1212,3.1242,3.1192,3.1197,3.138,3.1383,3.1386,3.1406,0,0,0,0,0,0,3.0834,3.0854,3.0881,3.0932,3.0953,3.105,3.1027,3.1033,3.1064,3.1062,3.1112,3.1118,3.1135,3.1204,3.1217,3.1249,3.1201,3.1378,3.1382,3.1385,3.1403,3.141,3.1415,0,0,0,0,0,3.0827,3.0882,3.0883,3.0899,3.0988,3.1052,3.1063,3.1082,3.1066,3.1093,3.1119,3.1117,3.1236,3.121,3.1225,3.1259,3.1376,3.1381,3.1385,3.1401,3.1409,3.1415,0,0,0,0,0,0,3.0831,3.0889,3.089,3.0964,3.1003,3.1052,3.1087,3.109,3.1133,3.113,3.115,3.1161,3.1225,3.1248,3.1218,3.1327,3.1304,3.1312,3.1311,3.1319,3.1324,3.1318,3.1205,0,0,0,0,0,3.0841,3.089,3.0936,3.0996,3.1016,3.1048,3.1077,3.1088,3.1129,3.1145,3.1176,3.1214,3.126,3.129,3.1335,3.1406,3.1417,3.1436,3.1442,3.1447,3.1454,3.1494,3.1503,3.1402,3.1402,3.1402,0,0,3.0861,3.0898,3.0928,3.0998,3.103,3.1079,3.1062,3.1114,3.115,3.1152,3.1216,3.1239,3.1283,3.1352,3.1383,3.1372,3.1484,3.1453,3.1456,3.1461,3.1499,3.1509,3.1517,3.1405,3.1404,3.1404,0,0,3.0924,3.0956,3.1011,3.1043,3.1093,3.1113,3.1126,3.1175,3.1192,3.1256,3.1259,3.13,3.1379,3.1411,3.1437,3.1511,3.1511,3.1525,3.1557,3.1596,3.1604,3.1611,3.1638,3.1648,3.1531,3.1531,3.1531,0,3.0942,3.1018,3.1038,3.1091,3.1122,3.1127,3.1182,3.1212,3.1272,3.1292,3.128,3.138,3.1409,3.1486,3.1504,3.1524,3.1539,3.152,3.1601,3.1608,3.1615,3.1642,3.1652,3.1532,3.1532,3.1532,3.1532,0,3.1039,3.1091,3.1128,3.1189,3.1224,3.1277,3.1304,3.1336,3.1344,3.1366,3.1431,3.1466,3.1519,3.1537,3.1544,3.1614,3.1607,3.1597,3.1574,3.1626,3.1652,3.1662,3.1535,3.1534,3.1534,3.1533,0,0,3.1109,3.118,3.1193,3.1221,3.1275,3.1315,3.1368,3.1421,3.1449,3.1489,3.1534,3.16,3.1593,3.1622,3.1633,3.1666,3.1724,3.1653,3.1654,3.1666,3.1804,3.1813,3.1824,3.1723,3.1725,3.1727,3.1801,0,3.1178,3.1275,3.1295,3.1378,3.1426,3.1432,3.1477,3.1515,3.1536,3.1578,3.16,3.1649,3.1633,3.1652,3.1685,3.171,3.1752,3.1705,3.1765,3.1767,3.1756,3.1837,3.1846,3.1915,3.1811,3.1813,3.1814,0,3.1273,3.1319,3.1408,3.1456,3.1477,3.1518,3.1569,3.161,3.1651,3.1664,3.1698,3.1704,3.1758,3.1731,3.1806,3.1773,3.1798,3.1814,3.1817,3.1825,3.1795,3.1849,3.1937,3.1948,3.1829,3.1828,3.1827,0,3.1318,3.14,3.1465,3.1488,3.1545,3.1574,3.1599,3.1639,3.167,3.1713,3.1733,3.1781,3.1807,3.1843,3.1862,3.1841,3.1935,3.191,3.1947,3.1947,3.1969,3.1968,3.2064,3.1982,3.1982,3.1981,3.1981,0,3.1395,3.145,3.1486,3.1526,3.1586,3.1606,3.1666,3.1689,3.1725,3.1769,3.1774,3.1814,3.1836,3.1879,3.1894,3.1953,3.1965,3.1976,3.198,3.1977,3.1976,3.1995,3.1992,3.1984,3.1984,3.1983,3.1983,0,3.1456,3.1482,3.1553,3.1601,3.1615,3.1658,3.1698,3.1736,3.1757,3.1812,3.1826,3.1857,3.1908,3.1931,3.1992,3.2002,3.2071,3.207,3.2058,3.206,3.2097,3.2094,3.2211,3.2227,3.2132,3.2133,3.2134,0,3.1505,3.1547,3.1601,3.1631,3.1658,3.1706,3.1738,3.1758,3.1791,3.1842,3.1873,3.1925,3.1967,3.2048,3.2076,3.2123,3.2124,3.2162,3.2131,3.2128,3.2127,3.2125,3.213,3.2168,3.2169,3.217,3.217,0,3.1589,3.16,3.1647,3.1698,3.1737,3.1778,3.1817,3.1841,3.1868,3.1904,3.1957,3.199,3.2054,3.2105,3.2154,3.2177,3.2179,3.2179,3.2191,3.219,3.2182,3.2188,3.2075,3.2177,3.2177,3.2176,3.2176,3.2175,3.1647,3.1685,3.1729,3.1781,3.1813,3.1851,3.1889,3.1915,3.196,3.2016,3.2024,3.2081,3.212,3.2187,3.2212,3.2256,3.2246,3.2262,3.2267,3.2271,3.2274,3.2173,3.2264,3.2264,3.2264,3.2264,3.2264,0,3.1733,3.1762,3.1809,3.1866,3.1906,3.1904,3.1948,3.1982,3.2033,3.207,3.2112,3.2173,3.2222,3.2254,3.2303,3.2332,3.2334,3.2344,3.2343,3.2349,3.2279,3.2265,3.2342,3.2342,3.2342,3.2342,3.2342,3.2342,3.1783,3.1849,3.1864,3.1945,3.1973,3.203,3.2055,3.2089,3.212,3.2188,3.223,3.225,3.2285,3.2337,3.2382,3.239,3.2408,3.242,3.2427,3.2362,3.2354,3.2346,3.2333,3.2423,3.2423,3.2494,3.2494,3.2495]}]]